STARLINK-1560, 46036

Orbit data source: Space-Track

STARLINK-1560, 46036 is a payload satellite owned by SpaceX/Seattle (US) in LEO that was launched on Fri, 07 Aug 2020 UTC via an FALCON 9 launch vehicle from the Air Force Eastern Test Range (AFETR). Payloads include a variety of satellites, spacecraft, and rockets equipped with specific instruments for various scientific and technological missions. These include communications satellites like Starlink; space stations such as the ISS; scientific satellites like the Hubble; Earth observation satellites from companies like Planet Labs, Umbra, and HawkEye 360; GPS; miniature CubeSats for education and research; and military/defense satellites.

Loading next visibility...
STARLINK-1560 details
Identifier
46036, 2020-055K
Orbit
LEO
Last TLE update8 hours ago
Origin
Flag of USSpaceX/Seattle (US)
ManufacturerSpaceX/Seattle
MissionOperational Commercial Communications
Bus & MotorSTARLINK, Unknown motor
Mass260 kg wet, ~248 kg dry
Launch date (UTC)
2020-08-07 (4 years ago)
Launch vehicle
FALCON 9
Launch site
Air Force Eastern Test Range (AFETR)
Object type
Payload
Rocket body
Debris
Shape & HBRBox + 1 Pan, 8.86 m
Radar Cross Section13.562 m², Large (>1 m²)

Expand to show TLE details & history

TLE from 8 hours ago
0 STARLINK-1560
1 46036U 20055K   24361.11319285  .00015644  00000-0  10667-2 0  9999
2 46036  53.0563 295.4681 0001268 103.3471 256.7660 15.06404076242276
Epoch: 2024-12-26T02:42Z
Definitive object data (Epoch: 2024-12-26T02:42:59.862Z)
Latitude0.00004°
Longitude159.62145°
Altitude548.28 km
Speed7.589 km/s
True Right ascension19h 41m 52s
True Declination0° 00' 00"
Sunlit
Object was in daylight at TLE epoch
Visualization TLE readout
Latitude-2.03403°
Longitude156.61188°
Altitude548.586 km
Speed7.589 km/s
Apparent Right ascension20h 32m 06s
Apparent Declination-21° 04' 07"
Sunlit
Object is in daylight
Visualization observer readout
Local Sidereal Time10:01:14
Azimuth51.814° ENE
Elevation-63.243°
Doppler factor1
Orbital elements
Apogee altitude548.348 km
Perigee altitude546.591 km
Semi-major axis6,925.606 km
Eccentricity0.0001268
Inclination53.0563°
RAAN295.4681°
Arg. of periapsis103.3471°
True anomaly256.75186°
Mean anomaly256.766°
Eccentric anomaly256.75893°
Mean motion3.76579 °/min
BSTAR0.0010667
Orbital period95.6 mins
Loading maneuver chart data...
Loading historical data...
Loading historical data...
Loading historical data...
Loading historical data...
Loading historical data...
Loading historical data...
Loading historical data...

STARLINK-1560 Visibility forecast

Observer location: undefined°, undefined

Span
Click to sort rows by Start time (UTC) header in descending order
Start Az.
Max El. time (UTC)
Max El. Az.
Max El.
End time (UTC)
End Az.
7 mins2024-12-26 21:59:01.160Z200.922° SSW2024-12-26 22:02:01.160Z141.125° SSE33.719°2024-12-26 22:06:01.160Z62.791° ENE
5 mins2024-12-26 23:40:01.160Z286.761° WNW2024-12-26 23:42:01.160Z338.271° N27.678°2024-12-26 23:45:01.160Z32.159° NE
6 mins2024-12-27 04:41:01.160Z327.933° NNW2024-12-27 04:44:01.160Z53.235° ENE34.455°2024-12-27 04:47:01.160Z105.163° ESE
5 mins2024-12-27 06:21:01.160Z270.669° WNW2024-12-27 06:23:01.160Z227.784° WSW23.651°2024-12-27 06:26:01.160Z175.828° S
|